Location: Ferma
(41.9500°N, 44.5167°E)
Time: 04:15:06
(UTC+00:00)

NOSS 2-3 (D) - Pass Details

Date: 29 May 2022
Orbit: 536 x 1674 km, 63.3° (Epoch: 02 June)

Event Time Altitude Azimuth Distance (km) Brightness Sun altitude
Rises 20:17:18 0° 321° (NW) 3,564 8.4 -25.6°
Reaches altitude 10° 20:19:35 10° 318° (NW) 2,762 7.6 -25.7°
Maximum altitude 20:26:08 63° 239° (WSW) 1,332 5.0 -25.9°
Enters shadow 20:28:04 50° 187° (S) 1,580 5.1 -25.9°
